Location: Navalmoral
(40.4603°N, 4.7686°W)
Time: 10:21:30
(UTC+00:00)

Cosmos 2297 Rocket - Pass Details

Date: 05 August 2024
Orbit: 837 x 844 km, 71.0° (Epoch: 18 September)

Event Time Altitude Azimuth Distance (km) Brightness Sun altitude
Rises 21:39:45 0° 347° (NNW) 3,409 6.4 -21.2°
Reaches altitude 10° 21:42:47 10° 3° (N) 2,471 5.2 -21.6°
Maximum altitude 21:47:08 22° 53° (NE) 1,759 3.8 -22.1°
Enters shadow 21:48:38 20° 75° (ENE) 1,858 3.7 -22.3°
